Palm Springs, CA

5:18 PM PST on November 17, 2017 (GMT -0800)
Palm Springs International

Weather History for KPSP - August, 2014

Change the Weather History Date:

Sunday, August 17, 2014

  Actual Average Record
Temperature  
Mean Temperature 98 °F 92 °F  
Max Temperature 113 °F 106 °F 118 °F (1950)
Min Temperature 82 °F 78 °F 60 °F (1976)
Degree Days  
Heating Degree Days 0 0  
Month to date heating degree days 0 0  
Since 1 June heating degree days 0 0  
Since 1 July heating degree days 0 0  
Cooling Degree Days 33 27  
Month to date cooling degree days 452 464  
Year to date cooling degree days 3224 2716  
Since 1 June cooling degree days 2114 1957  
Growing Degree Days 46 (Base 50)    
Moisture  
Dew Point 49 °F    
Average Humidity 27    
Maximum Humidity 43    
Minimum Humidity 10    
Precipitation  
Precipitation 0.00 in 0.01 in 1.63 in (1977)
Month to date precipitation 0.88 0.19  
Year to date precipitation 1.90 3.38  
Since 1 July precipitation 1.15  
Snow  
Snow 0.00 in - - ()
Month to date snowfall 0.0  
Year to date snowfall 0.0  
Snow Depth 0.00 in    
Sea Level Pressure  
Sea Level Pressure 29.80 in    
Wind  
Wind Speed 3 mph (WNW)    
Max Wind Speed 16 mph    
Max Gust Speed 20 mph    
Visibility 10 miles    
Events      
T = Trace of Precipitation, MM = Missing Value Source: NWS Daily Summary

Daily Weather History Graph

Daily Weather History Graph

Search for Another Location

Airport or City:

Trip Planner

Search our weather history database for the weather conditions in past years. The results will help you decide how hot, cold, wet, or windy it might be!

Date:

Astronomy

Aug. 17, 2014 Rise Set
Actual Time 6:09 AM PDT 7:30 PM PDT
Civil Twilight 5:43 AM PDT 7:56 PM PDT
Nautical Twilight 5:11 AM PDT 8:27 PM PDT
Astronomical Twilight 4:39 AM PDT 9:00 PM PDT
Moon No Moon Rise 1:37 PM PDT (8/17)
Length of Visible Light 14h 13m
Length of Day
13h 20m
Waning Gibbous, 47% of the Moon is Illuminated
Aug 17
Waning Gibbous
Aug 25
New
Sep 2
First Quarter
Sep 8
Full
Sep 15
Last Quarter

Hourly Weather History & Observations

Time (PDT) Temp. Heat Index Dew Point Humidity Pressure Visibility Wind Dir Wind Speed Gust Speed Precip Events Conditions
12:53 AM 89.1 °F 86.9 °F 54.0 °F 30% 29.84 in 10.0 mi Calm Calm - N/A   Clear
1:53 AM 89.1 °F - 51.1 °F 27% 29.83 in 10.0 mi Calm Calm - N/A   Clear
2:53 AM 89.1 °F - 52.0 °F 28% 29.84 in 10.0 mi Calm Calm - N/A   Clear
3:53 AM 86.0 °F 84.0 °F 53.1 °F 32% 29.84 in 10.0 mi South 3.5 mph - N/A   Clear
4:53 AM 87.1 °F - 51.1 °F 29% 29.85 in 10.0 mi Calm Calm - N/A   Clear
5:53 AM 82.9 °F 82.4 °F 57.0 °F 41% 29.86 in 10.0 mi Calm Calm - N/A   Clear
6:53 AM 84.0 °F 83.5 °F 57.9 °F 41% 29.86 in 10.0 mi WSW 3.5 mph - N/A   Clear
7:53 AM 89.1 °F 86.9 °F 54.0 °F 30% 29.87 in 10.0 mi Calm Calm - N/A   Clear
8:53 AM 93.9 °F - 51.1 °F 23% 29.87 in 10.0 mi South 3.5 mph - N/A   Clear
9:53 AM 99.0 °F - 50.0 °F 19% 29.87 in 10.0 mi West 3.5 mph - N/A   Clear
10:53 AM 102.9 °F - 48.0 °F 16% 29.86 in 10.0 mi Calm Calm - N/A   Clear
11:53 AM 106.0 °F - 46.9 °F 14% 29.85 in 10.0 mi Variable 3.5 mph - N/A   Clear
12:53 PM 107.1 °F - 46.9 °F 13% 29.83 in 10.0 mi East 6.9 mph - N/A   Partly Cloudy
1:53 PM 109.0 °F - 45.0 °F 12% 29.81 in 10.0 mi Variable 4.6 mph - N/A   Clear
3:53 PM 109.9 °F - 44.1 °F 11% 29.74 in 10.0 mi SE 6.9 mph - N/A   Clear
4:53 PM 111.9 °F - 42.1 °F 10% 29.72 in 10.0 mi NNW 16.1 mph 19.6 mph N/A   Clear
5:53 PM 109.9 °F - 43.0 °F 11% 29.70 in 10.0 mi NW 15.0 mph 23.0 mph N/A   Clear
6:53 PM 107.1 °F - 44.1 °F 12% 29.70 in 10.0 mi NW 15.0 mph - N/A   Partly Cloudy
7:53 PM 104.0 °F - 46.0 °F 14% 29.71 in 10.0 mi NW 18.4 mph 25.3 mph N/A   Clear
8:53 PM 102.0 °F - 46.0 °F 15% 29.73 in 10.0 mi NW 13.8 mph - N/A   Clear
9:53 PM 100.0 °F - 45.0 °F 15% 29.74 in 10.0 mi NW 16.1 mph 21.9 mph N/A   Clear
10:53 PM 98.1 °F - 46.0 °F 17% 29.75 in 10.0 mi West 5.8 mph - N/A   Clear
11:53 PM 96.1 °F - 46.9 °F 19% 29.75 in 10.0 mi WNW 5.8 mph - N/A   Clear